Hollywood, FL

9:01 AM EDT on July 28, 2017 (GMT -0400)
North Perry

Weather History for KHWO - April, 2013

Change the Weather History Date:

Sunday, April 21, 2013

  Actual Average (KFLL) Record (KFLL)
Temperature  
Mean Temperature 78 °F -  
Max Temperature 84 °F 83 °F 89 °F (1959)
Min Temperature 73 °F 66 °F 49 °F (1953)
Cooling Degree Days 14    
Growing Degree Days 28 (Base 50)    
Moisture  
Dew Point 71 °F    
Average Humidity 85    
Maximum Humidity 94    
Minimum Humidity 56    
Precipitation  
Precipitation 0.00 in - - ()
Sea Level Pressure  
Sea Level Pressure 30.07 in    
Wind  
Wind Speed 6 mph (North)    
Max Wind Speed 16 mph    
Max Gust Speed 22 mph    
Visibility 10 miles    
Events Rain    
Averages and records for this station are not official NWS values.
T = Trace of Precipitation, MM = Missing Value Source: NWS Daily Summary

Daily Weather History Graph

Daily Weather History Graph

Search for Another Location

Airport or City:

Trip Planner

Search our weather history database for the weather conditions in past years. The results will help you decide how hot, cold, wet, or windy it might be!

Date:

Astronomy

Apr. 21, 2013 Rise Set
Actual Time 6:52 AM EDT 7:47 PM EDT
Civil Twilight 6:28 AM EDT 8:11 PM EDT
Nautical Twilight 6:00 AM EDT 8:39 PM EDT
Astronomical Twilight 5:31 AM EDT 9:08 PM EDT
Moon 3:54 PM EDT (4/21) 3:47 AM EDT (4/21)
Length of Visible Light 13h 43m
Length of Day
12h 55m
Waxing Gibbous, 79% of the Moon is Illuminated
Apr 21
Waxing Gibbous
Apr 25
Full
May 2
Last Quarter
May 9
New
May 18
First Quarter

Hourly Weather History & Observations

Time (EDT) Temp. Heat Index Dew Point Humidity Pressure Visibility Wind Dir Wind Speed Gust Speed Precip Events Conditions
12:11 AM 75.2 °F - 73.4 °F 94% 30.10 in 10.0 mi WNW 3.5 mph - N/A   Mostly Cloudy
12:19 AM 75.2 °F - 73.4 °F 94% 30.10 in 10.0 mi NW 3.5 mph - N/A   Mostly Cloudy
12:36 AM 75.2 °F - 73.4 °F 94% 30.09 in 10.0 mi NNW 4.6 mph - N/A   Scattered Clouds
12:53 AM 75.0 °F - 73.0 °F 94% 30.09 in 10.0 mi NNW 5.8 mph - N/A   Partly Cloudy
1:11 AM 75.2 °F - 71.6 °F 89% 30.09 in 10.0 mi North 3.5 mph - N/A   Mostly Cloudy
1:40 AM 75.2 °F - 71.6 °F 89% 30.08 in 10.0 mi NNW 8.1 mph - N/A   Mostly Cloudy
1:53 AM 75.0 °F - 72.0 °F 90% 30.09 in 10.0 mi NNW 6.9 mph - N/A   Mostly Cloudy
2:06 AM 75.2 °F - 71.6 °F 89% 30.08 in 10.0 mi NW 6.9 mph - N/A   Scattered Clouds
2:45 AM 73.4 °F - 71.6 °F 94% 30.07 in 10.0 mi NW 5.8 mph - N/A   Partly Cloudy
2:53 AM 73.0 °F - 71.1 °F 93% 30.06 in 10.0 mi NW 5.8 mph - N/A   Clear
3:16 AM 73.4 °F - 71.6 °F 94% 30.06 in 10.0 mi NNW 8.1 mph - N/A   Scattered Clouds
3:35 AM 73.4 °F - 71.6 °F 94% 30.06 in 10.0 mi NNW 8.1 mph - N/A   Mostly Cloudy
3:53 AM 73.0 °F - 71.1 °F 93% 30.05 in 10.0 mi North 5.8 mph - N/A   Mostly Cloudy
4:04 AM 73.4 °F - 71.6 °F 94% 30.05 in 10.0 mi Calm Calm - N/A   Partly Cloudy
4:53 AM 73.0 °F - 71.1 °F 93% 30.03 in 10.0 mi Calm Calm - N/A   Clear
5:53 AM 73.0 °F - 71.1 °F 93% 30.03 in 10.0 mi NNW 4.6 mph - N/A   Clear
6:43 AM 73.4 °F - 71.6 °F 94% 30.05 in 10.0 mi North 4.6 mph - N/A   Mostly Cloudy
6:53 AM 73.0 °F - 71.1 °F 93% 30.06 in 10.0 mi North 8.1 mph - N/A   Mostly Cloudy
7:53 AM 73.0 °F - 71.1 °F 93% 30.08 in 10.0 mi North 6.9 mph - N/A   Mostly Cloudy
8:16 AM 73.4 °F - 71.6 °F 94% 30.09 in 10.0 mi NNW 6.9 mph - N/A   Mostly Cloudy
8:49 AM 73.4 °F - 71.6 °F 94% 30.09 in 10.0 mi NNE 4.6 mph - N/A   Mostly Cloudy
8:53 AM 73.9 °F - 71.1 °F 91% 30.09 in 10.0 mi NE 4.6 mph - N/A   Mostly Cloudy
9:20 AM 75.2 °F - 71.6 °F 89% 30.10 in 10.0 mi NNW 3.5 mph - N/A   Mostly Cloudy
9:32 AM 75.2 °F - 69.8 °F 83% 30.10 in 10.0 mi NNE 5.8 mph - N/A   Scattered Clouds
9:53 AM 79.0 °F - 72.0 °F 79% 30.10 in 10.0 mi North 8.1 mph - N/A   Partly Cloudy
10:53 AM 80.1 °F 83.8 °F 72.0 °F 76% 30.12 in 10.0 mi ENE 15.0 mph - N/A   Scattered Clouds
11:53 AM 82.9 °F 86.5 °F 69.1 °F 63% 30.11 in 10.0 mi East 9.2 mph - N/A   Partly Cloudy
12:53 PM 84.0 °F 86.5 °F 66.9 °F 56% 30.11 in 10.0 mi East 15.0 mph 21.9 mph N/A   Clear
1:53 PM 84.0 °F 88.4 °F 70.0 °F 63% 30.08 in 10.0 mi ESE 16.1 mph - N/A   Clear
2:53 PM 81.0 °F 84.4 °F 70.0 °F 69% 30.06 in 10.0 mi ESE 15.0 mph - N/A   Scattered Clouds
3:53 PM 82.0 °F 86.3 °F 71.1 °F 69% 30.02 in 10.0 mi ESE 15.0 mph 21.9 mph N/A   Scattered Clouds
4:34 PM 80.6 °F 83.9 °F 69.8 °F 70% 30.02 in 10.0 mi SE 15.0 mph - N/A   Mostly Cloudy
4:44 PM 80.6 °F 83.9 °F 69.8 °F 70% 30.02 in 10.0 mi ESE 11.5 mph - N/A   Mostly Cloudy
4:53 PM 81.0 °F 84.4 °F 70.0 °F 69% 30.02 in 10.0 mi SE 8.1 mph - N/A   Mostly Cloudy
5:53 PM 79.0 °F - 70.0 °F 74% 30.04 in 10.0 mi South 6.9 mph - N/A   Mostly Cloudy
6:04 PM 78.8 °F - 69.8 °F 74% 30.04 in 10.0 mi South 6.9 mph - N/A   Mostly Cloudy
6:53 PM 78.1 °F - 70.0 °F 76% 30.06 in 10.0 mi South 5.8 mph - 0.00 in Rain Light Rain
7:53 PM 75.9 °F - 71.1 °F 85% 30.06 in 10.0 mi WSW 5.8 mph - 0.00 in Rain Light Rain
8:53 PM 75.9 °F - 71.1 °F 85% 30.05 in 10.0 mi Calm Calm - 0.00 in   Clear
9:53 PM 75.9 °F - 71.1 °F 85% 30.06 in 10.0 mi Calm Calm - N/A   Clear
10:53 PM 75.9 °F - 72.0 °F 87% 30.06 in 10.0 mi Calm Calm - N/A   Clear
11:53 PM 75.9 °F - 72.0 °F 87% 30.07 in 10.0 mi NW 4.6 mph - N/A   Clear